Powrót do katalogu

STARLINK-35122

AktywnyŁącznośćVLEO
NORAD 65510·PAYLOAD·🇺🇸 United States

Wystrzelony Sep 5, 2025 z Cape Canaveral Space Force Station

Loading…

Następne Przeloty (najbliższe 24 godziny)

TLE

ŚwieżeSource: CelesTrak SupGP

Epoka: Sep 14, 2026, 21:02 UTC

1 65510C 25198U   26257.87687500 -.00044249  00000+0 -13076-2 0  2575
2 65510  53.1579 107.8637 0001200  82.1198  46.9476 15.34406454    16

Śledź STARLINK-35122 w czasie rzeczywistym z AllMySat

Download on the App Store